Regional Weather Roundup
Issued by NWS Upton, NY

Current Version | Previous Version | Graphics & Text | Print | Product List | Glossary Off
Versions: 1 2 3 4 5 6 7 8 9 10 11 12 13 14 15 16 17 18 19 20 21 22 23 24 25 26 27

000
ASUS41 KOKX 201105
RWROKX

Regional Weather Roundup
National Weather Service New York NY
700 AM EDT FRI APR 20 2018

Note: "FAIR" indicates few or no clouds below 12,000 feet with no
significant weather and/or obstructions to visibility.

NYZ071-072-176-178-NJZ106-104-201200-
New York City Metro Area

CITY           SKY/WX    TMP DP  RH WIND       PRES   REMARKS
Central Park   FAIR      37  21  52 NW10G18   30.14R WCI  30
Bronx Bot Gard   N/A     36  23  60 NW3       30.13R
Bronx Lehman C   N/A     36  23  60 NW12        N/A  WCI  27
LaGuardia Arpt FAIR      38  22  52 NW18      30.11R WCI  28
Queens College   N/A     37  23  56 W14         N/A  WCI  29
Kennedy Intl   FAIR      37  22  54 NW24      30.11R WCI  26
Breezy Point     N/A     36 N/A N/A NW16G26     N/A  WCI  26
Brooklyn Coll    N/A     37  23  56 NW15        N/A  WCI  28
Staten Island    N/A     37  23  56 NW10        N/A  WCI  30
Newark/Liberty FAIR      38  21  50 NW17      30.13R WCI  28
Teterboro      FAIR      37  22  54 NW16G25   30.11R WCI  28
$$

NYZ177-179-078>081-201200-
Long Island New York

CITY           SKY/WX    TMP DP  RH WIND       PRES   REMARKS
Jones Beach      N/A     37 N/A N/A NW21G28     N/A  WCI  27
Wantagh          N/A     36  23  60 NW10        N/A  WCI  28
Hempstead        N/A     36  27  69 W8        30.12R WCI  29
Matinecock Pt    N/A     37 N/A N/A NW22        N/A  WCI  27
Farmingdale    FAIR      36  21  54 NW12G18   30.09R WCI  28
MacArthur/ISP  FAIR      36  22  56 NW14      30.07R WCI  27
Stony Brook      N/A     36  25  64 NW8         N/A  WCI  29
Shirley        FAIR      36  24  62 NW13      30.07R WCI  27
Mt Sinai Harb    N/A     36 N/A N/A NW10        N/A  WCI  28
Westhampton    FAIR      36  24  62 NW13G23   30.08R WCI  27
East Hampton   FAIR      35  23  61 NW9G20    30.04R WCI  28
Southold         N/A     36  25  64 NW17        N/A  WCI  25
Montauk          N/A     38  26  62 NW15G24   30.02R WCI  29
$$

NYZ052-065-067-201200-
Hudson Valley

CITY           SKY/WX    TMP DP  RH WIND       PRES   REMARKS
White Plains   FAIR      34  20  56 NW18G26   30.07R WCI  23
Larchmont Harb   N/A     36 N/A N/A W14         N/A  WCI  27
Croton On Huds   N/A     36 N/A N/A W17         N/A  WCI  25
Somers           N/A     34  21  60 NW6         N/A  WCI  29
Brewster         N/A     32  21  64 N6          N/A  WCI  26
Newburgh       PTCLDY    34  23  64 NW12      30.10R WCI  25
Montgomery     FAIR      35  21  56 NW8       30.10R WCI  29
Otisville        N/A     32  23  69 NW8         N/A  WCI  25
Warwick          N/A     32  25  74 NW12G23     N/A  WCI  23
Suffern          N/A     34  23  64 NW13G26     N/A  WCI  25
Poughkeepsie   MOCLDY    36  20  52 NW6       30.09R WCI  31
Albany         MOCLDY    34  22  61 NW15G21   30.10R WCI  24
$$

NJZ001-105-106-008-010-013-015-019>022-104-201200-
New Jersey

CITY           SKY/WX    TMP DP  RH WIND       PRES   REMARKS
Newark/Liberty FAIR      38  21  50 NW17      30.13R WCI  28
Teterboro      FAIR      37  22  54 NW16G25   30.11R WCI  28
Caldwell       FAIR      36  21  54 NW10      30.13R WCI  28
Somerville     MOCLDY    36  23  59 NW12G20   30.14R WCI  28
Linden         FAIR      37  20  51 NW14      30.15R WCI  28
Perth Amboy      N/A     37 N/A N/A NW14G20     N/A  WCI  29
Sussex         CLOUDY    35  21  56 VRB5      30.13R WCI  31
Andover          N/A     34  20  56 N6        30.14R WCI  29
Trenton        CLOUDY    37  23  56 NW9       30.17R WCI  30
Millville      FAIR      37  22  54 NW9       30.21R WCI  30
Atlantic City  FAIR      37  25  61 W10       30.18R WCI  30
Wrightstown    CLOUDY    36  22  57 NW10      30.15  WCI  29
Toms River     CLOUDY    36  23  59 NW13      30.17R WCI  27
Belmar         FAIR      36  23  59 W10       30.15R WCI  28
$$

PAZ047>061-062-071-201200-
Eastern Pennsylvania

CITY           SKY/WX    TMP DP  RH WIND       PRES   REMARKS
Philadelphia   FAIR      37  20  50 NW13      30.21R WCI  29
Allentown      MOCLDY    36  18  48 NW18G25   30.17R WCI  26
Scranton       CLOUDY    32  22  66 NW15      30.17R WCI  22
$$

CTZ002-004>006-009-010-012-RIZ004-006-007-MAZ004-011-015-201200-
Southern New England

 In CT

CITY           SKY/WX    TMP DP  RH WIND       PRES   REMARKS
Bradley Intl   MOCLDY    34  23  64 NW10      30.04R WCI  26
Hartford       FAIR      35  23  61 NW6       30.05R WCI  30
Danbury        FAIR      33  20  58 NW6       30.08R WCI  28
Wtrbury/Oxford FAIR      32  23  69 NW12G17   30.03R WCI  23
Norwalk Harbor   N/A     34 N/A N/A NW12        N/A  WCI  25
Bridgeport     FAIR      36  21  54 NW12      30.07R WCI  28
Meriden        FAIR      34  22  61 NW6       30.05R WCI  29
New Haven      FAIR      36  22  56 NW10G21   30.05R WCI  28
Chester        FAIR      34  23  64 NW9       30.02R WCI  26
Groton         FAIR      35  24  64 NW9       30.01R WCI  28
Willimantic    FAIR      35  24  64 W9        30.02R WCI  28

 In RI

CITY           SKY/WX    TMP DP  RH WIND       PRES   REMARKS
Providence     FAIR      36  27  69 W13       29.98R WCI  27
Block Island   FAIR      36  25  64 NW13G24   30.00R WCI  27
Westerly       FAIR      36  26  67 NW9       30.00R WCI  29

In MA

CITY           SKY/WX    TMP DP  RH WIND       PRES   REMARKS
Boston         PTSUNNY   37  27  67 W14       29.94R WCI  28
Worcester      PTSUNNY   31  22  69 W16       29.93R WCI  20
Westfield      FAIR      34  24  67 NW8       30.02R WCI  27
Provincetown   CLOUDY    38  30  73 W22       29.93R WCI  27
Nantucket      FAIR      38  31  76 W15G21    29.93R WCI  29
$$

ANZ330-335-338-340-345-350-353-355-201200-
Coastal Marine Observations


STATION/POSITION TIME  SKY/WX   TEMP    WIND        PRES    VSBY  WAVE
                                AIR SEA DIR/SP/G                  HT/PER
                 (UTC)          (F)     (DEG/KT/KT) (MB)    (MI)  (FT/S)
NY Harb Entrance 1050            39 44  310/ 23/ 31 1019.8          4/ 4
20 S Fire Island 1050            39 42  310/ 25/ 31 1018.3          5/ 5
23 SSW Montauk P 1050            38 42  300/ 23/ 27 1016.5          5/ 5
15 E Barnegat Li 1030               44                N/A           5/ 4
Hudson Canyon    1050            40 44  310/ 25/ 31 1017.9          8/ 7
Kings Point      1030            37 43  360/ 16/ 23 1019.9
Execution Rocks  NOT AVBL
Western LI Sound NOT AVBL
Central LI Sound 1015            37     300/ 19/ 23   N/A           3
Robbins Reef     1030            37     300/ 19/ 21 1020.3
$$


>>>>>>>>>>>>>>>>>>>>>>>>>>>> KEY <<<<<<<<<<<<<<<<<<<<<<<<<<<
>                                                          <
>     SKY/WX - Sky Condition/Present Weather               <
>     TMP    - Temperature in Fahrenheit                   <
>     DP     - Dew Point in Fahrenheit                     <
>     RH     - Relative Humidity in Percent                <
>     WIND   - Direction (from) and Speed in MPH           <
>     PRES   - Mean Sea Level Pressure (inches of Hg)      <
>     WCI    - Wind Chill Index                            <
>     VSB    - Visibility in Miles                         <
>     HX     - Heat Index                                  <
>     TC     - Temperature in Celsius                      <
>     VRB    - Varibale Wind Direction                     <
>                                                          <
>>>>>>>>>>>>>>>>>>>>>>>>>>>> KEY <<<<<<<<<<<<<<<<<<<<<<<<<<<




USA.gov is the U.S. government's official web portal to all federal, state and local government web resources and services.